Location: Roland
(31.1349°N, 85.4372°W)
Time: 00:18:25
(UTC+00:00)

Transit 2A Rocket - All Passes

Search period start: 19 April 2021 00:00
Search period end: 29 April 2021 00:00
Orbit: 594 x 908 km, 66.7° (Epoch: 18 April)

Date Brightness Start Highest point End Pass type
(mag) Time Alt. Az. Time Alt. Az. Time Alt. Az.
19 Apr - 05:20:22 10° NNE 05:23:03 15° NE 05:25:50 10° E visible
19 Apr - 07:01:13 10° NW 07:05:42 48° WSW 07:10:33 10° S night (unlit)
19 Apr - 19:49:05 10° S 19:53:18 32° ESE 19:57:16 10° NE daylight
19 Apr - 21:32:33 10° WSW 21:35:47 19° WNW 21:38:56 10° NNW daylight
20 Apr - 06:18:29 10° NNW 06:23:08 85° ENE 06:28:13 10° SSE night (unlit)
20 Apr - 19:07:59 10° SE 19:10:50 16° ESE 19:13:35 10° ENE daylight
20 Apr - 20:48:47 10° SW 20:53:03 36° WNW 20:57:08 10° N daylight
21 Apr - 05:36:08 10° N 05:40:32 42° ENE 05:45:17 10° SE visible
21 Apr - 07:19:55 10° WNW 07:22:46 16° WSW 07:25:44 10° SW night (unlit)
21 Apr - 20:05:45 10° SSW 20:10:26 75° WNW 20:14:51 10° NNE daylight
22 Apr - 04:54:10 10° N 04:57:50 23° ENE 05:01:42 10° ESE visible
22 Apr - 06:36:10 10° NW 06:40:18 31° WSW 06:44:45 10° S night (unlit)
22 Apr - 19:23:19 10° S 19:27:53 52° ESE 19:32:11 10° NE daylight
22 Apr - 21:08:44 10° W 21:10:36 12° NW 21:12:26 10° NNW daylight
23 Apr - 04:13:08 10° NNE 04:15:01 12° NE 04:16:56 10° ENE visible
23 Apr - 05:53:09 10° NNW 05:57:47 62° WSW 06:02:49 10° SSE night (unlit)
23 Apr - 18:41:34 10° SSE 18:45:23 25° ESE 18:49:02 10° NE daylight
23 Apr - 20:24:06 10° WSW 20:27:47 23° WNW 20:31:19 10° N daylight
24 Apr - 05:10:34 10° NNW 05:15:12 67° ENE 05:20:16 10° SSE visible
24 Apr - 18:01:08 10° SE 18:02:57 12° ESE 18:04:44 10° E daylight
24 Apr - 19:40:39 10° SW 19:45:06 46° WNW 19:49:19 10° NNE daylight
25 Apr - 04:28:19 10° N 04:32:34 34° ENE 04:37:07 10° SE visible
25 Apr - 06:11:23 10° WNW 06:14:53 20° WSW 06:18:35 10° SSW night (unlit)
25 Apr - 18:57:50 10° SSW 19:02:29 85° ESE 19:06:53 10° NNE daylight
26 Apr - 03:46:34 10° NNE 03:49:50 18° ENE 03:53:15 10° E visible
26 Apr - 05:27:59 10° NW 05:32:24 39° WSW 05:37:10 10° S visible
26 Apr - 18:15:37 10° S 18:19:58 39° ESE 18:24:04 10° NE daylight
26 Apr - 19:59:52 10° W 20:02:33 15° NW 20:05:11 10° NNW daylight
27 Apr - 04:45:08 10° NNW 04:49:51 79° WSW 04:55:00 10° SSE visible
27 Apr - 17:34:11 10° SSE 17:37:30 19° ESE 17:40:40 10° ENE daylight
27 Apr - 19:15:48 10° WSW 19:19:47 29° WNW 19:23:37 10° N daylight
28 Apr - 04:02:40 10° NNW 04:07:15 52° ENE 04:12:15 10° SE visible
28 Apr - 05:47:12 10° W 05:49:26 13° WSW 05:51:46 10° SW night (unlit)
28 Apr - 18:32:34 10° SW 18:37:08 60° WNW 18:41:27 10° NNE daylight
